Location: Aucun
(42.9667°N, 0.1667°W)
Time: 05:32:18
(UTC+00:00)

Daily predictions for brighter satellites

Satellite Brightness Start Highest point End
(mag) Time Altitude Azimuth Time Altitude Azimuth Time Altitude Azimuth
Resurs 1-4 Rocket 4.5 02:00:40 10° N 02:01:48 17° N 02:01:48 17° N
IDEFIX/ARIANE 42P 4.4 02:33:43 10° N 02:35:50 25° N 02:35:50 25° N
CZ-2C R/B 4.2 02:41:03 10° NE 02:45:14 26° E 02:45:49 25° ESE
Cosmos 2123 Rocket 4.5 02:48:23 10° N 02:54:32 57° E 02:57:13 33° SE
FENGYUN 3A 4.3 02:50:09 10° NNE 02:55:11 51° E 02:55:11 51° E
ADEOS II 3.8 02:56:04 10° N 02:58:10 23° NNW 02:58:10 23° NNW
Cosmos 1934 Rocket 4.1 03:08:35 63° SSE 03:09:35 76° E 03:15:56 10° N
IRS-1D 4.1 03:06:31 10° N 03:10:32 51° N 03:10:32 51° N
CBERS-1 4.2 03:08:33 10° NNE 03:13:28 68° E 03:13:28 68° E
ATLAS CENTAUR R/B 4.5 03:12:46 10° SE 03:14:42 12° ESE 03:16:39 10° E
CZ-2C R/B 4.2 03:17:50 10° SE 03:22:28 34° ENE 03:27:11 10° N
PAYLOAD A 4.0 03:28:53 10° NNE 03:33:40 72° ESE 03:34:35 56° SSE
CZ-2D R/B 4.4 03:31:17 10° NNW 03:31:39 11° NNW 03:31:39 11° NNW
Cosmos 407 Rocket 4.2 03:29:46 10° NNW 03:35:01 56° ENE 03:40:14 10° SE
Tiangong 0.4 03:38:03 18° ESE 03:38:03 18° ESE 03:39:00 10° ESE
Atlas Centaur 2 3.9 03:36:13 27° S 03:37:39 28° S 03:43:37 10° ESE
BREEZE-M DEB (TANK) 3.6 03:41:11 28° NNE 03:41:11 28° NNE 03:44:46 10° E
X-37B 2.9 03:43:15 21° E 03:43:15 21° E 03:44:28 10° E
Cosmos 1656 3.7 03:37:41 10° NNW 03:43:26 85° ENE 03:49:07 10° SSE
Meteor 1-14 Rocket 4.2 03:37:35 10° N 03:43:34 90° S 03:49:23 10° S
ALOS 2.2 03:39:41 10° N 03:44:08 67° WNW 03:44:08 67° WNW
BREEZE-M R/B 4.5 03:49:01 40° WNW 03:51:18 62° NNW 04:03:05 10° ENE
USA 307 3.5 03:51:03 41° SSE 03:51:41 44° SE 03:55:39 10° ENE
Helios 1B rocket 2.2 03:51:04 10° NNE 03:55:09 86° WNW 03:55:38 69° SSW
Cosmos 1805 Rocket 4.4 03:51:26 10° NNW 03:54:18 36° NW 03:54:18 36° NW
Meteor 1-5 Rocket 4.1 03:50:31 10° NNW 03:55:48 56° W 03:57:32 38° SSW
ARIANE 5 R/B 2.6 03:51:52 10° NNE 03:56:56 73° ESE 04:00:51 17° S
SL-08 R/B 4.1 03:56:23 10° SSE 04:00:51 52° ENE 04:05:25 10° N
Cosmos 1633 Rocket 3.6 04:00:53 10° N 04:05:12 59° E 04:09:27 10° SSE
USA 306 2.9 04:05:17 50° SSW 04:06:12 72° SE 04:10:19 10° NE
Cosmos 1023 Rocket 4.4 04:02:08 10° NNW 04:07:18 67° WSW 04:12:28 10° S
Cosmos 1484 Rocket 3.0 04:05:38 10° NNE 04:09:36 70° ESE 04:12:53 15° S
CZ-3 R/B 4.3 03:53:52 17° SW 04:10:10 33° S 04:18:22 10° ESE
Cosmos 2098 Rocket 2.4 04:12:00 10° N 04:14:52 65° E 04:17:48 10° SSE
Cosmos 1666 Rocket 3.5 04:10:29 10° N 04:14:59 87° WSW 04:19:27 10° S
Cosmos 1624 Rocket 4.1 04:10:46 13° SSW 04:15:31 78° ESE 04:20:51 10° NNE
ERS-1 4.4 04:10:53 10° NNE 04:16:05 81° WNW 04:21:15 10° SSW
Cosmos 2360 4.4 04:10:31 10° NNW 04:16:15 74° ENE 04:21:55 10° SSE
Cosmos 1153 Rocket 4.4 04:10:18 10° S 04:16:26 87° W 04:22:39 10° N
Meteor 1-4 Rocket 3.6 04:15:59 10° N 04:19:30 47° ENE 04:23:00 10° SSE
Cosmos 2100 Rocket 4.4 04:13:34 10° S 04:19:35 62° E 04:25:39 10° NNE
Cosmos 1328 Rocket 3.5 04:15:55 10° S 04:20:16 84° E 04:24:41 10° N
CZ-2C R/B 4.0 04:15:05 10° NNE 04:20:47 55° E 04:26:16 10° S
USA 234 3.3 04:16:47 10° NE 04:23:20 77° SE 04:28:44 16° SW
BREEZE-M DEB (TANK) 3.2 04:20:00 20° WNW 04:23:31 64° N 04:26:05 10° E
CZ-2C R/B 3.0 04:18:53 10° N 04:23:31 38° WNW 04:25:10 29° WSW
Cosmos 1833 Rocket 2.6 04:19:47 20° SW 04:23:43 72° WNW 04:29:23 10° NNE
USA 308 2.8 04:24:31 32° SW 04:26:23 85° SE 04:30:32 10° NE
Cosmos 1515 3.5 04:23:59 20° SSW 04:26:26 69° W 04:30:09 10° N
Cosmos 2251 Rocket 4.1 04:22:31 10° NW 04:27:09 32° W 04:31:45 10° SSW
ERBS 2.7 04:28:10 35° NW 04:28:16 35° NW 04:30:59 10° NNE
Cosmos 1371 Rocket 3.9 04:23:47 14° SSW 04:28:24 76° WNW 04:33:40 10° NNE
CZ-2C R/B 2.5 04:26:46 10° N 04:28:55 57° E 04:33:18 10° S
Aureole 3 4.0 04:28:40 31° W 04:29:11 33° W 04:32:31 10° NNW
Envisat 3.0 04:24:32 10° NNE 04:29:39 83° ESE 04:34:43 10° SSW
IRS-1C 4.4 04:27:24 10° N 04:32:31 48° WNW 04:36:46 15° SW
Cosmos 1536 2.8 04:28:32 10° N 04:32:37 87° E 04:36:39 10° S
COSMOS 2406 3.4 04:27:10 10° SSW 04:32:47 72° ESE 04:38:27 10° NNE
Cosmos 2082 Rocket 2.9 04:28:37 10° S 04:34:03 56° ESE 04:39:33 10° NNE
PSLV R/B 4.5 04:29:52 10° NNE 04:34:06 50° E 04:38:16 10° S
Cosmos 44 Rocket 4.2 04:33:41 10° S 04:38:12 45° ESE 04:42:41 10° NE
Cosmos 1515 Rocket 4.0 04:33:56 10° S 04:38:18 67° E 04:42:44 10° NNE
Cosmos 1151 Rocket 3.6 04:36:50 23° WSW 04:38:46 35° WNW 04:42:41 10° N
YAOGAN 6 2.6 04:36:35 10° N 04:40:11 58° WNW 04:43:44 10° SSW
Sich 1 4.3 04:38:14 10° NW 04:40:54 20° WNW 04:40:54 20° WNW
Cosmos 1140 Rocket 4.1 04:39:27 10° NW 04:44:02 32° W 04:48:37 10° SSW
Cosmos 1470 Rocket 3.4 04:41:36 10° N 04:45:56 84° W 04:50:16 10° S
Cosmos 1697 Rocket 2.7 04:42:40 10° NNW 04:48:16 63° WSW 04:53:49 10° S
Cosmos 1356 4.3 04:49:23 22° W 04:50:17 25° WNW 04:53:03 10° NNW
Cosmos 1346 Rocket 3.2 04:47:03 11° SW 04:50:42 40° WNW 04:54:29 10° N
ATLAS CENTAUR R/B 1.7 04:47:54 10° SW 04:52:43 87° WNW 04:57:38 10° NNE
BREEZE M DEB (TANK) 3.9 04:37:33 11° WSW 04:53:03 87° SSE 04:57:13 10° ENE
USA 305 3.2 04:53:50 17° W 04:56:43 48° NNW 05:00:43 10° NE
Cosmos 1743 3.0 04:54:10 10° NNW 04:57:46 42° W 05:01:21 10° SSW
BREEZE-M DEB (TANK) 3.4 04:56:22 10° NW 04:58:54 27° N 05:01:01 10° ENE
Cosmos 2056 Rocket 3.8 04:54:08 10° SW 04:59:01 44° WNW 05:03:55 10° N
CZ-2C R/B 2.6 04:56:54 10° N 05:00:38 84° WNW 05:04:26 10° SSW
Cosmos 1441 Rocket 3.6 04:58:19 10° SW 05:01:48 39° WNW 05:05:19 10° N
Meteor 1-27 Rocket 3.9 04:56:20 10° SSW 05:01:56 56° WNW 05:07:43 10° N
CZ-2C R/B 3.3 04:58:11 10° SSW 05:02:44 31° W 05:07:24 10° NNW
Cosmos 1190 Rocket 4.5 04:59:05 10° NW 05:03:50 37° WSW 05:08:35 10° SSW
Cosmos 1802 Rocket 4.0 04:58:07 10° S 05:04:31 83° W 05:10:55 10° N
Cosmos 1954 Rocket 4.1 05:00:22 10° NNW 05:05:28 55° WSW 05:10:35 10° S
Cosmos 1459 Rocket 4.1 05:03:07 10° SSW 05:09:20 61° W 05:15:40 10° N
COSMO-SKYMED 1 2.8 05:06:37 10° SSE 05:10:56 78° ENE 05:15:17 10° N
Cosmos 1420 Rocket 4.5 05:06:21 10° SW 05:11:17 41° WNW 05:16:13 10° N
CENTAUR R/B 3.0 05:06:07 10° SSW 05:11:37 62° ESE 05:18:19 10° NE
Tiangong -0.6 05:10:11 12° WSW 05:12:20 22° SSW 05:14:52 10° SSE
Spot 4 Rocket 4.3 05:08:20 10° N 05:13:13 47° WNW 05:18:07 10° SW
Cosmos 1378 3.0 05:10:40 10° S 05:14:17 83° W 05:17:56 10° N
CZ-4C R/B 3.7 05:10:34 10° S 05:14:26 44° W 05:18:31 10° NNW
Meteor 1-29 4.0 05:12:27 10° NNW 05:15:11 25° WNW 05:17:55 10° SW
DELTA 2 R/B (1) 4.1 05:11:00 10° WSW 05:16:28 55° SSE 05:21:55 10° E
X-37B 0.6 05:14:29 11° W 05:17:10 59° N 05:20:01 10° ENE
SJ-12 3.9 05:14:21 10° N 05:18:26 79° WNW 05:22:30 10° SSW
Okean 1 3.4 05:15:05 10° SSW 05:19:04 58° W 05:23:04 10° N
H-2A ROCKET BODY 4.4 05:13:40 10° SW 05:19:57 29° S 05:40:58 10° SE
Cosmos 1725 Rocket 4.0 05:13:57 10° S 05:20:15 81° W 05:26:38 10° N
Lacrosse 4 Rocket 4.0 05:18:53 10° N 05:22:24 23° NE 05:25:57 10° ESE
Cosmos 1741 Rocket 4.4 05:17:18 10° NNW 05:22:33 70° ENE 05:27:43 10° SSE
NOSS 3-2 (A) 3.5 05:17:46 10° SSW 05:23:06 76° ESE 05:29:16 10° NE
Meteor 2-9 Rocket 4.2 05:19:19 10° NNW 05:25:05 68° W 05:30:39 10° S
Cosmos 2369 3.8 05:20:33 10° NNW 05:26:07 58° WSW 05:31:38 10° S
Atlas Centaur 2 3.9 05:19:56 10° WSW 05:26:13 28° S 05:31:33 10° SE
Cosmos 1980 Rocket 2.2 05:21:16 10° NNW 05:26:48 61° WSW 05:32:17 10° S
Cosmos 1869 Rocket 3.8 05:23:19 10° N 05:27:48 78° E 05:32:12 10° SSE
H-2A R/B 4.0 05:23:04 10° NNE 05:28:07 38° E 05:33:09 10° SSE
H-2A R/B 3.5 05:25:05 10° N 05:28:14 28° WNW 05:31:22 10° SW
USA 307 3.7 05:27:19 10° W 05:31:10 36° NNW 05:35:03 10° NE
